| time (UTC) | temp F | wind direction | speed knots | gust knots | rain 1hr in | rain 24hr in | rain mn in | humidity % | barometer mb |
| 20260504010059 | 46 | 239 | 0.9 | 2.6 | 0.00 | 0.41 | 0.20 | 52 | 1007.2 |
| 20260504004600 | 47 | 241 | 0.9 | 4.3 | 0.00 | 0.44 | 0.20 | 51 | 1006.8 |
| 20260504003048 | 48 | 263 | 1.7 | 6.1 | 0.00 | 0.44 | 0.20 | 49 | 1006.6 |
| 20260504001549 | 49 | 279 | 2.6 | 7.8 | 0.00 | 0.44 | 0.20 | 47 | 1006.5 |
| 20260504000046 | 49 | 266 | 2.6 | 9.6 | 0.00 | 0.44 | 0.20 | 47 | 1006.3 |
| 20260503234547 | 50 | 298 | 3.5 | 10.4 | 0.00 | 0.45 | 0.20 | 47 | 1006.0 |
| 20260503233046 | 50 | 253 | 2.6 | 9.6 | 0.00 | 0.45 | 0.20 | 47 | 1005.7 |
| 20260503231544 | 51 | 272 | 2.6 | 13.0 | 0.00 | 0.45 | 0.20 | 47 | 1005.3 |
| 20260503230044 | 51 | 279 | 2.6 | 6.1 | 0.00 | 0.45 | 0.20 | 47 | 1005.0 |
| 20260503224543 | 51 | 273 | 2.6 | 13.0 | 0.00 | 0.45 | 0.20 | 46 | 1004.7 |
| 20260503223048 | 52 | 265 | 2.6 | 8.7 | 0.00 | 0.45 | 0.20 | 47 | 1004.5 |
| 20260503221544 | 52 | 247 | 2.6 | 7.8 | 0.00 | 0.45 | 0.20 | 48 | 1004.1 |
| 20260503220041 | 52 | 329 | 2.6 | 13.0 | 0.00 | 0.45 | 0.20 | 48 | 1004.0 |
| 20260503214540 | 52 | 209 | 2.6 | 7.8 | 0.00 | 0.45 | 0.20 | 51 | 1003.8 |
| 20260503213057 | 52 | 225 | 4.3 | 11.3 | 0.00 | 0.45 | 0.20 | 49 | 1003.6 |
| 20260503211538 | 52 | 232 | 2.6 | 13.0 | 0.00 | 0.45 | 0.20 | 52 | 1003.5 |
| 20260503210047 | 52 | 263 | 1.7 | 10.4 | 0.00 | 0.45 | 0.20 | 52 | 1003.3 |
| 20260503204547 | 52 | 239 | 1.7 | 11.3 | 0.00 | 0.45 | 0.20 | 54 | 1003.1 |
| 20260503203034 | 52 | 316 | 2.6 | 11.3 | 0.00 | 0.45 | 0.20 | 56 | 1002.9 |
| 20260503201533 | 51 | 269 | 0.9 | 5.2 | 0.00 | 0.45 | 0.20 | 67 | 1002.9 |
| 20260503200034 | 50 | 351 | 1.7 | 7.0 | 0.00 | 0.45 | 0.20 | 72 | 1002.9 |
| 20260503194535 | 50 | 292 | 3.5 | 7.8 | 0.00 | 0.45 | 0.20 | 68 | 1003.0 |
| 20260503193039 | 51 | 318 | 5.2 | 9.6 | 0.00 | 0.45 | 0.20 | 65 | 1002.9 |
| 20260503191530 | 50 | 300 | 4.3 | 10.4 | 0.00 | 0.45 | 0.20 | 62 | 1002.8 |
| 20260503190034 | 48 | 319 | 3.5 | 7.8 | 0.00 | 0.45 | 0.20 | 67 | 1002.9 |
| 20260503184535 | 48 | 234 | 3.5 | 10.4 | 0.01 | 0.45 | 0.20 | 72 | 1003.1 |
| 20260503183024 | 47 | 284 | 1.7 | 9.6 | 0.01 | 0.45 | 0.20 | 78 | 1003.1 |
| 20260503181523 | 45 | 290 | 1.7 | 7.8 | 0.01 | 0.45 | 0.20 | 86 | 1003.0 |
| 20260503180025 | 44 | 311 | 3.5 | 9.6 | 0.01 | 0.45 | 0.20 | 88 | 1003.0 |
| 20260503174521 | 45 | 325 | 4.3 | 12.2 | 0.00 | 0.44 | 0.19 | 85 | 1002.9 |
| 20260503173021 | 46 | 306 | 5.2 | 10.4 | 0.00 | 0.44 | 0.19 | 83 | 1002.8 |
| 20260503171520 | 48 | 325 | 5.2 | 14.8 | 0.00 | 0.44 | 0.19 | 75 | 1002.7 |
| 20260503170120 | 48 | 331 | 5.2 | 12.2 | 0.00 | 0.44 | 0.19 | 74 | 1002.4 |
| 20260503120103 | 44 | 282 | 1.7 | 7.0 | 0.00 | 0.44 | 0.19 | 93 | 1002.8 |
| 20260503081520 | 45 | 250 | 2.6 | 7.8 | 0.01 | 0.39 | 0.14 | 96 | 1004.0 |
| 20260503071513 | 46 | 286 | 1.7 | 7.0 | 0.03 | 0.38 | 0.13 | 97 | 1004.4 |
| 20260503054559 | 47 | 269 | 0.0 | 3.5 | 0.05 | 0.33 | 0.08 | 97 | 1005.5 |
| 20260503053054 | 47 | 281 | 0.0 | 3.5 | 0.04 | 0.31 | 0.06 | 97 | 1005.7 |
| 20260503051553 | 47 | 219 | 0.0 | 0.0 | 0.03 | 0.28 | 0.04 | 97 | 1006.0 |
| 20260503050049 | 47 | 218 | 0.0 | 0.0 | 0.04 | 0.28 | 0.04 | 96 | 1006.0 |
| 20260503044546 | 47 | 218 | 0.0 | 0.0 | 0.05 | 0.28 | 0.03 | 96 | 1006.4 |
| 20260503043047 | 47 | 218 | 0.0 | 0.0 | 0.06 | 0.27 | 0.02 | 96 | 1006.5 |
| 20260503041546 | 47 | 218 | 0.0 | 0.0 | 0.07 | 0.26 | 0.01 | 96 | 1006.9 |
| 20260503040047 | 47 | 218 | 0.0 | 0.0 | 0.08 | 0.25 | 0.00 | 96 | 1006.9 |
| 20260503034558 | 47 | 218 | 0.0 | 0.0 | 0.07 | 0.23 | 0.23 | 96 | 1006.9 |
| 20260503033044 | 48 | 218 | 0.0 | 0.0 | 0.06 | 0.21 | 0.21 | 96 | 1006.8 |
| 20260503031542 | 48 | 218 | 0.0 | 0.0 | 0.05 | 0.19 | 0.19 | 96 | 1006.9 |
| 20260503030050 | 48 | 218 | 0.0 | 0.0 | 0.05 | 0.17 | 0.17 | 96 | 1006.9 |
| 20260503024535 | 48 | 218 | 0.0 | 1.7 | 0.06 | 0.16 | 0.16 | 96 | 1007.3 |
| 20260503023034 | 48 | 218 | 0.0 | 0.9 | 0.08 | 0.15 | 0.15 | 96 | 1007.6 |
| 20260503021541 | 48 | 218 | 0.0 | 0.9 | 0.09 | 0.14 | 0.14 | 95 | 1007.8 |
| 20260503020032 | 48 | 218 | 0.0 | 0.0 | 0.08 | 0.12 | 0.12 | 95 | 1007.8 |
| 20260503014531 | 48 | 218 | 0.0 | 0.9 | 0.08 | 0.10 | 0.10 | 95 | 1007.9 |
| 20260503013031 | 48 | 218 | 0.0 | 0.0 | 0.05 | 0.07 | 0.07 | 95 | 1008.1 |
| 20260503011534 | 48 | 218 | 0.0 | 0.9 | 0.04 | 0.05 | 0.05 | 94 | 1008.1 |